Other Public Products
Issued by NWS Charleston, SC

Current Version | Previous Version | Graphics & Text | Print | Product List | Glossary On
Versions: 1 2 3 4 5 6 7 8 9 10 11 12 13 14 15 16 17 18 19 20 21 22 23 24 25 26 27 28 29 30 31 32 33 34 35 36 37 38 39 40 41 42 43 44 45 46 47 48 49 50
173 FPUS82 KCHS 220427 OPUCHS TEST...KCHS/KSAV Gateway Observations...TEST National Weather Service Charleston SC 1100 PM EST TUE NOV 21 2017 NOTE: "fair" indicates few or no clouds below 12,000 feet with no significant weather and/or obstructions to visibility. SCZ050-WAZ558-NCZ071-TXZ119-213-PAZ071-DCZ001-FLZ074-172-MI076- NYZ176-178-MAZ016-IL014-TNZ027-NJZ106-GAZ044-MD014-220500- ...Gateway Observations for Charleston International... CITY SKY/WX TMP DP RH WIND PRES REMARKS Chas Airport LGT RAIN 61 61 100 CALM 29.99F Seattle RAIN 58 57 97 S10 29.89R FOG Charlotte LGT RAIN 54 51 90 NE5 30.03F Dallas DFW CLEAR 57 38 48 N20 30.19R Dallas Love CLEAR 58 36 43 N14G23 30.20R Philladelphia CLOUDY 53 41 63 SW9 30.03F Wash National CLOUDY 53 45 74 S8 30.03F Baltimore CLOUDY 54 44 69 SW6 30.01F Miami MOCLDY 77 71 82 CALM 29.95S Detroit CLOUDY 37 29 72 NW12 30.00R WCI 29 Newark CLOUDY 50 40 68 S5 30.04F Laguardia CLOUDY 53 40 61 S9 30.04S J F K CLOUDY 50 43 77 SW8 30.05F Boston Logan PTCLDY 50 40 68 SW12 30.02R Ft. Lauderdale PTCLDY 76 71 85 CALM 29.94S Chicago O`Hare PTCLDY 29 14 53 NW14 30.19R WCI 18 Chicago Midway PTCLDY 30 15 53 NW10 30.19R WCI 21 Houston Bush MOCLDY 62 59 90 NE13 30.04R Houston Hobby CLOUDY 64 60 87 NE9 30.02R Nashville CLOUDY 43 32 65 CALM 30.11R Atlanta PTCLDY 56 54 93 E3 30.02F $$ GAZ044-118-TXZ119-213-NCZ071-DCZ001-MDZ014-506-PAZ021-071-NJZ106- NYZ176-178-MAZ106-OHZ011-021-055-MIZ076-KYZ091-ILZ014-INZ047- MNZ060-ONZ431-220500- ...Gateway Observations for Savannah International... CITY SKY/WX TMP DP RH WIND PRES REMARKS Savannah Arpt CLOUDY 62 62 100 CALM 29.99F Atlanta PTCLDY 56 54 93 E3 30.02F Charlotte LGT RAIN 54 51 90 NE5 30.03F Dallas DFW CLEAR 57 38 48 N20 30.19R Houston Bush MOCLDY 62 59 90 NE13 30.04R Wash National CLOUDY 53 45 74 S8 30.03F Wash Dulles CLOUDY 53 43 68 S9 30.01F Baltimore CLOUDY 54 44 69 SW6 30.01F Philadelphia CLOUDY 53 41 63 SW9 30.03F Newark CLOUDY 50 40 68 S5 30.04F Laguardia CLOUDY 53 40 61 S9 30.04S J F K CLOUDY 50 43 77 SW8 30.05F Boston PTCLDY 50 40 68 SW12 30.02R Pittsburg CLOUDY 49 30 48 W7 29.93R Akron CLOUDY 46 34 62 W12 29.95R Cleveland LGT RAIN 39 36 89 W13G23 30.01R WCI 31 Cincinnati LGT RAIN 38 36 92 NW16 30.09R WCI 29 Columbus CLOUDY 44 36 74 NW15G22 30.01R Detroit CLOUDY 37 29 72 NW12 30.00R WCI 29 Chicago O`Hare PTCLDY 29 14 53 NW14 30.19R WCI 18 Minneapolis CLOUDY 20 11 68 N13 30.30S WCI 7 Indianapolis CLEAR 31 24 75 NW12 30.14R WCI 22 Toronto Canada LGT RAIN 37 32 81 NW16G23 29.88R WCI 28 $$

USA.gov is the U.S. government's official web portal to all federal, state and local government web resources and services.